This is the latest recevied weather packets stored in our database for station/object N5CSU. If no packets are shown the sender has not sent any weather packets the latest 10 day(s).
| Time | Temp. | Humidity | Pressure | Rain* | Wind** | Luminosity | Snow |
|---|---|---|---|---|---|---|---|
| 1788210772 | 38.33° C | 33% | 1014.5 hPa | 0 mm | - | 22 W/m² | - |
| 1788210467 | 37.78° C | 33% | 1014.4 hPa | 0 mm | - | 25 W/m² | - |
| 1788210163 | 38.33° C | 33% | 1014.5 hPa | 0 mm | - | 26 W/m² | - |
| 1788209862 | 38.89° C | 32% | 1014.5 hPa | 0 mm | - | 41 W/m² | - |
| 1788209559 | 38.89° C | 32% | 1014.5 hPa | 0 mm | - | 43 W/m² | - |
| 1788209258 | 38.33° C | 33% | 1014.7 hPa | 0 mm | - | 93 W/m² | - |
| 1788208958 | 38.33° C | 33% | 1014.8 hPa | 0 mm | - | 33 W/m² | - |
| 1788208657 | 38.33° C | 31% | 1014.7 hPa | 0 mm | - | 29 W/m² | - |
| 1788208352 | 37.78° C | 32% | 1014.9 hPa | 0 mm | - | 32 W/m² | - |
| 1788208050 | 37.78° C | 32% | 1015 hPa | 0 mm | - | 25 W/m² | - |
| 1788207745 | 37.22° C | 33% | 1015 hPa | 0 mm | - | 25 W/m² | - |
| 1788207445 | 37.22° C | 34% | 1015.1 hPa | 0 mm | - | 16 W/m² | - |
| 1788207138 | 37.78° C | 34% | 1015.2 hPa | 0 mm | - | 17 W/m² | - |
| 1788206834 | 37.78° C | 33% | 1015.2 hPa | 0 mm | - | 112 W/m² | - |
| 1788206528 | 37.78° C | 33% | 1015.3 hPa | 0 mm | - | 27 W/m² | - |
| 1788206219 | 37.78° C | 31% | 1015.4 hPa | 0 mm | - | 27 W/m² | - |
| 1788205914 | 38.33° C | 30% | 1015.5 hPa | 0 mm | - | 34 W/m² | - |
| 1788205608 | 38.33° C | 32% | 1015.5 hPa | 0 mm | - | 36 W/m² | - |
| 1788205304 | 37.78° C | 33% | 1015.6 hPa | 0 mm | - | 38 W/m² | - |
| 1788204998 | 37.22° C | 33% | 1015.7 hPa | 0 mm | - | 85 W/m² | - |
| 1788204694 | 36.67° C | 35% | 1015.9 hPa | 0 mm | - | 30 W/m² | - |
| 1788204389 | 37.22° C | 33% | 1015.9 hPa | 0 mm | - | 29 W/m² | - |
| 1788204084 | 36.67° C | 37% | 1016 hPa | 0 mm | - | 68 W/m² | - |
| 1788203780 | 36.67° C | 36% | 1015.8 hPa | 0 mm | - | 28 W/m² | - |
| 1788203476 | 37.22° C | 35% | 1015.9 hPa | 0 mm | - | 38 W/m² | - |
* Rain latest hour (hover to see other rain measurements)
** Current wind speed in m/s (hover to see current wind gust speed)